| time (UTC) | temp C | wind direction | speed KPH | gust KPH | rain 1hr cm | rain 24hr cm | rain mn cm | humidity % | barometer mb |
| 20260504050346 | 5 | 327 | 0.0 | 0.0 | 0.00 | 0.00 | 0.00 | 76 | 1012.8 |
| 20260504045844 | 6 | 339 | 0.0 | 0.0 | 0.00 | 0.00 | 0.00 | 75 | 1012.9 |
| 20260504045343 | 6 | 338 | 0.0 | 0.0 | 0.00 | 0.00 | 0.00 | 76 | 1013.2 |
| 20260504044841 | 6 | 336 | 0.0 | 0.0 | 0.00 | 0.00 | 0.00 | 76 | 1013.3 |
| 20260504044338 | 6 | 337 | 0.0 | 0.0 | 0.00 | 0.00 | 0.00 | 75 | 1013.1 |
| 20260504043836 | 6 | 333 | 0.0 | 0.0 | 0.00 | 0.00 | 0.00 | 75 | 1013.1 |
| 20260504043332 | 6 | 336 | 0.0 | 0.0 | 0.00 | 0.00 | 0.00 | 76 | 1012.9 |
| 20260504042829 | 6 | 336 | 0.0 | 0.0 | 0.00 | 0.00 | 0.00 | 76 | 1013.1 |
| 20260504042326 | 6 | 337 | 0.0 | 0.0 | 0.00 | 0.00 | 0.00 | 75 | 1012.9 |
| 20260504041822 | 6 | 334 | 0.0 | 0.0 | 0.00 | 0.00 | 0.00 | 74 | 1012.9 |
| 20260504041318 | 6 | 334 | 0.0 | 0.0 | 0.00 | 0.00 | 0.00 | 74 | 1013.0 |
| 20260504040815 | 6 | 323 | 0.0 | 0.0 | 0.00 | 0.00 | 0.00 | 74 | 1012.9 |
| 20260504040312 | 6 | 335 | 0.0 | 0.0 | 0.00 | 0.00 | 0.00 | 72 | 1012.9 |
| 20260504035808 | 7 | 334 | 0.0 | 0.0 | 0.00 | 0.00 | 0.00 | 72 | 1012.8 |
| 20260504035305 | 7 | 328 | 0.0 | 0.0 | 0.00 | 0.00 | 0.00 | 72 | 1012.8 |
| 20260504034802 | 7 | 333 | 0.0 | 0.0 | 0.00 | 0.00 | 0.00 | 71 | 1012.8 |
| 20260504034300 | 7 | 332 | 0.0 | 0.0 | 0.00 | 0.00 | 0.00 | 69 | 1012.8 |
| 20260504033757 | 8 | 330 | 0.0 | 0.0 | 0.00 | 0.00 | 0.00 | 68 | 1012.6 |
| 20260504033255 | 8 | 326 | 0.0 | 3.2 | 0.00 | 0.00 | 0.00 | 67 | 1012.7 |
| 20260504032751 | 8 | 314 | 3.2 | 3.2 | 0.00 | 0.00 | 0.00 | 66 | 1012.5 |
| 20260504032248 | 8 | 325 | 0.0 | 0.0 | 0.00 | 0.00 | 0.00 | 65 | 1012.8 |
| 20260504031745 | 8 | 327 | 0.0 | 0.0 | 0.00 | 0.00 | 0.00 | 65 | 1012.6 |
| 20260504031243 | 8 | 325 | 0.0 | 0.0 | 0.00 | 0.00 | 0.00 | 63 | 1012.6 |
| 20260504030738 | 8 | 317 | 0.0 | 0.0 | 0.00 | 0.00 | 0.00 | 62 | 1012.7 |
| 20260504030236 | 9 | 325 | 0.0 | 0.0 | 0.00 | 0.00 | 0.00 | 60 | 1012.6 |
| 20260504025732 | 9 | 326 | 0.0 | 0.0 | 0.00 | 0.00 | 0.00 | 60 | 1012.6 |
| 20260504025229 | 9 | 315 | 0.0 | 0.0 | 0.00 | 0.00 | 0.00 | 60 | 1012.7 |
| 20260504024726 | 9 | 318 | 0.0 | 3.2 | 0.00 | 0.00 | 0.00 | 61 | 1012.5 |
| 20260504024222 | 9 | 325 | 0.0 | 3.2 | 0.00 | 0.00 | 0.00 | 60 | 1012.7 |
| 20260504023719 | 9 | 321 | 0.0 | 0.0 | 0.00 | 0.00 | 0.00 | 61 | 1012.5 |
| 20260504023215 | 10 | 322 | 0.0 | 3.2 | 0.00 | 0.00 | 0.00 | 60 | 1012.6 |
| 20260504022712 | 10 | 314 | 0.0 | 0.0 | 0.00 | 0.00 | 0.00 | 59 | 1012.5 |
| 20260504022208 | 10 | 327 | 0.0 | 0.0 | 0.00 | 0.00 | 0.00 | 58 | 1012.6 |
| 20260504021706 | 10 | 321 | 0.0 | 0.0 | 0.00 | 0.00 | 0.00 | 57 | 1012.4 |
| 20260504021202 | 10 | 323 | 1.6 | 3.2 | 0.00 | 0.00 | 0.00 | 56 | 1012.4 |
| 20260504020659 | 10 | 326 | 0.0 | 3.2 | 0.00 | 0.00 | 0.00 | 54 | 1012.5 |
| 20260504020155 | 11 | 325 | 0.0 | 3.2 | 0.00 | 0.00 | 0.00 | 53 | 1012.4 |
| 20260504015652 | 11 | 291 | 3.2 | 8.0 | 0.00 | 0.00 | 0.00 | 52 | 1012.4 |
| 20260504015148 | 11 | 317 | 0.0 | 0.0 | 0.00 | 0.00 | 0.00 | 52 | 1012.3 |
| 20260504014644 | 11 | 309 | 3.2 | 3.2 | 0.00 | 0.00 | 0.00 | 50 | 1012.3 |
| 20260504014142 | 12 | 326 | 3.2 | 3.2 | 0.00 | 0.00 | 0.00 | 49 | 1012.3 |
| 20260504013639 | 12 | 314 | 0.0 | 3.2 | 0.00 | 0.00 | 0.00 | 48 | 1012.1 |
| 20260504013136 | 12 | 312 | 0.0 | 3.2 | 0.00 | 0.00 | 0.00 | 48 | 1012.1 |
| 20260504012633 | 12 | 312 | 1.6 | 8.0 | 0.00 | 0.00 | 0.00 | 48 | 1012.1 |
| 20260504012131 | 12 | 289 | 4.8 | 8.0 | 0.00 | 0.00 | 0.00 | 49 | 1012.3 |
| 20260504011627 | 12 | 295 | 6.4 | 8.0 | 0.00 | 0.00 | 0.00 | 49 | 1012.2 |
| 20260504011124 | 12 | 249 | 4.8 | 8.0 | 0.00 | 0.00 | 0.00 | 48 | 1012.2 |
| 20260504010620 | 12 | 324 | 4.8 | 11.3 | 0.00 | 0.00 | 0.00 | 48 | 1011.9 |
| 20260504010116 | 12 | 292 | 6.4 | 11.3 | 0.00 | 0.00 | 0.00 | 48 | 1011.9 |
| 20260504005613 | 12 | 284 | 4.8 | 11.3 | 0.00 | 0.00 | 0.00 | 48 | 1011.9 |
| 20260504005110 | 12 | 289 | 6.4 | 8.0 | 0.00 | 0.00 | 0.00 | 48 | 1012.0 |
| 20260504004608 | 12 | 289 | 3.2 | 8.0 | 0.00 | 0.00 | 0.00 | 47 | 1012.0 |
| 20260504004105 | 13 | 301 | 3.2 | 11.3 | 0.00 | 0.00 | 0.00 | 47 | 1011.9 |
| 20260504003555 | 13 | 266 | 9.7 | 11.3 | 0.00 | 0.00 | 0.00 | 45 | 1011.8 |
| 20260504003053 | 13 | 288 | 4.8 | 11.3 | 0.00 | 0.00 | 0.00 | 44 | 1011.7 |
| 20260504002549 | 13 | 306 | 4.8 | 11.3 | 0.00 | 0.00 | 0.00 | 45 | 1011.7 |
| 20260504002047 | 13 | 259 | 11.3 | 16.1 | 0.00 | 0.00 | 0.00 | 44 | 1011.6 |
| 20260504001545 | 13 | 324 | 6.4 | 11.3 | 0.00 | 0.00 | 0.00 | 44 | 1011.5 |
| 20260504001040 | 13 | 286 | 6.4 | 24.1 | 0.00 | 0.00 | 0.00 | 44 | 1011.7 |
| 20260504000538 | 14 | 300 | 11.3 | 16.1 | 0.00 | 0.00 | 0.00 | 43 | 1011.5 |
| 20260504000035 | 14 | 301 | 11.3 | 16.1 | 0.00 | 0.00 | 0.00 | 43 | 1011.3 |
| 20260503235533 | 14 | 298 | 6.4 | 19.3 | 0.00 | 0.00 | 0.00 | 43 | 1011.4 |
| 20260503235030 | 14 | 317 | 8.0 | 16.1 | 0.00 | 0.00 | 0.00 | 42 | 1011.5 |
| 20260503234527 | 15 | 276 | 9.7 | 16.1 | 0.00 | 0.00 | 0.00 | 42 | 1011.5 |
| 20260503234026 | 15 | 250 | 3.2 | 19.3 | 0.00 | 0.00 | 0.00 | 42 | 1011.3 |
| 20260503233521 | 15 | 290 | 8.0 | 16.1 | 0.00 | 0.00 | 0.00 | 41 | 1011.4 |
| 20260503233018 | 15 | 272 | 6.4 | 16.1 | 0.00 | 0.00 | 0.00 | 42 | 1011.4 |
| 20260503232515 | 15 | 230 | 9.7 | 16.1 | 0.00 | 0.00 | 0.00 | 40 | 1011.5 |
| 20260503232012 | 15 | 329 | 9.7 | 16.1 | 0.00 | 0.00 | 0.00 | 40 | 1011.4 |
| 20260503231510 | 15 | 261 | 12.9 | 19.3 | 0.00 | 0.00 | 0.00 | 40 | 1011.3 |
| 20260503231006 | 15 | 262 | 9.7 | 16.1 | 0.00 | 0.00 | 0.00 | 40 | 1011.2 |
| 20260503230503 | 15 | 307 | 8.0 | 16.1 | 0.00 | 0.00 | 0.00 | 40 | 1011.4 |
| 20260503230000 | 15 | 287 | 17.7 | 27.4 | 0.00 | 0.00 | 0.00 | 39 | 1011.5 |
| 20260503225457 | 16 | 298 | 12.9 | 19.3 | 0.00 | 0.00 | 0.00 | 38 | 1011.3 |
| 20260503224952 | 16 | 288 | 16.1 | 24.1 | 0.00 | 0.00 | 0.00 | 38 | 1011.2 |
| 20260503224450 | 16 | 282 | 11.3 | 19.3 | 0.00 | 0.00 | 0.00 | 38 | 1011.4 |
| 20260503223947 | 16 | 274 | 14.5 | 19.3 | 0.00 | 0.00 | 0.00 | 37 | 1011.4 |
| 20260503223445 | 16 | 325 | 14.5 | 24.1 | 0.00 | 0.00 | 0.00 | 36 | 1011.3 |
| 20260503222941 | 16 | 262 | 12.9 | 16.1 | 0.00 | 0.00 | 0.00 | 37 | 1011.2 |
| 20260503222439 | 16 | 288 | 14.5 | 19.3 | 0.00 | 0.00 | 0.00 | 38 | 1011.4 |
| 20260503221937 | 16 | 272 | 22.5 | 30.6 | 0.00 | 0.00 | 0.00 | 38 | 1011.3 |
| 20260503221435 | 16 | 284 | 12.9 | 16.1 | 0.00 | 0.00 | 0.00 | 37 | 1011.3 |
| 20260503220932 | 16 | 294 | 8.0 | 19.3 | 0.00 | 0.00 | 0.00 | 37 | 1011.2 |
| 20260503220428 | 17 | 300 | 14.5 | 30.6 | 0.00 | 0.00 | 0.00 | 36 | 1011.2 |
| 20260503215925 | 17 | 279 | 12.9 | 27.4 | 0.00 | 0.00 | 0.00 | 36 | 1011.5 |
| 20260503215422 | 16 | 297 | 20.9 | 30.6 | 0.00 | 0.00 | 0.00 | 36 | 1011.5 |
| 20260503214920 | 16 | 296 | 20.9 | 38.6 | 0.00 | 0.00 | 0.00 | 37 | 1011.4 |
| 20260503214417 | 16 | 252 | 20.9 | 43.5 | 0.00 | 0.00 | 0.00 | 35 | 1011.3 |
| 20260503213914 | 16 | 276 | 17.7 | 38.6 | 0.00 | 0.00 | 0.00 | 36 | 1011.2 |
| 20260503213412 | 16 | 294 | 12.9 | 24.1 | 0.00 | 0.00 | 0.00 | 36 | 1011.2 |
| 20260503212908 | 16 | 257 | 9.7 | 19.3 | 0.00 | 0.00 | 0.00 | 37 | 1011.4 |
| 20260503212406 | 17 | 258 | 6.4 | 35.4 | 0.00 | 0.00 | 0.00 | 36 | 1011.3 |
| 20260503211903 | 17 | 289 | 16.1 | 27.4 | 0.00 | 0.00 | 0.00 | 35 | 1011.2 |
| 20260503211400 | 17 | 305 | 20.9 | 35.4 | 0.00 | 0.00 | 0.00 | 35 | 1011.1 |
| 20260503210855 | 16 | 246 | 19.3 | 30.6 | 0.00 | 0.00 | 0.00 | 36 | 1011.0 |
| 20260503210352 | 16 | 265 | 9.7 | 27.4 | 0.00 | 0.00 | 0.00 | 36 | 1011.2 |
| 20260503205847 | 16 | 336 | 14.5 | 35.4 | 0.00 | 0.00 | 0.00 | 36 | 1011.2 |
| 20260503205344 | 17 | 293 | 11.3 | 30.6 | 0.00 | 0.00 | 0.00 | 36 | 1011.3 |
| 20260503204841 | 16 | 327 | 14.5 | 30.6 | 0.00 | 0.00 | 0.00 | 37 | 1011.3 |
| 20260503204338 | 17 | 294 | 22.5 | 46.7 | 0.00 | 0.00 | 0.00 | 35 | 1011.3 |
| 20260503203835 | 17 | 266 | 16.1 | 24.1 | 0.00 | 0.00 | 0.00 | 36 | 1011.4 |
| 20260503203333 | 16 | 268 | 17.7 | 27.4 | 0.00 | 0.00 | 0.00 | 37 | 1011.3 |
| 20260503202829 | 16 | 320 | 16.1 | 35.4 | 0.00 | 0.00 | 0.00 | 36 | 1011.4 |
| 20260503202328 | 16 | 294 | 9.7 | 27.4 | 0.00 | 0.00 | 0.00 | 36 | 1011.3 |
| 20260503201826 | 16 | 312 | 35.4 | 46.7 | 0.00 | 0.00 | 0.00 | 34 | 1011.3 |
| 20260503201322 | 17 | 321 | 16.1 | 30.6 | 0.00 | 0.00 | 0.00 | 35 | 1011.3 |
| 20260503200820 | 17 | 257 | 14.5 | 38.6 | 0.00 | 0.00 | 0.00 | 36 | 1011.2 |
| 20260503200315 | 17 | 286 | 4.8 | 24.1 | 0.00 | 0.00 | 0.00 | 36 | 1011.3 |
| 20260503195813 | 16 | 316 | 17.7 | 27.4 | 0.00 | 0.00 | 0.00 | 36 | 1011.5 |
| 20260503195309 | 17 | 340 | 6.4 | 24.1 | 0.00 | 0.00 | 0.00 | 35 | 1011.5 |
| 20260503194807 | 17 | 305 | 14.5 | 19.3 | 0.00 | 0.00 | 0.00 | 37 | 1011.5 |
| 20260503194303 | 16 | 324 | 6.4 | 16.1 | 0.00 | 0.00 | 0.00 | 35 | 1011.7 |
| 20260503193759 | 16 | 299 | 14.5 | 27.4 | 0.00 | 0.00 | 0.00 | 36 | 1011.8 |
| 20260503193255 | 16 | 334 | 14.5 | 35.4 | 0.00 | 0.00 | 0.00 | 36 | 1011.8 |
| 20260503192751 | 17 | 226 | 17.7 | 27.4 | 0.00 | 0.00 | 0.00 | 35 | 1011.9 |
| 20260503192246 | 16 | 261 | 14.5 | 24.1 | 0.00 | 0.00 | 0.00 | 36 | 1012.2 |
| 20260503191743 | 17 | 279 | 11.3 | 38.6 | 0.00 | 0.00 | 0.00 | 36 | 1011.9 |
| 20260503191240 | 16 | 308 | 12.9 | 24.1 | 0.00 | 0.00 | 0.00 | 35 | 1012.0 |
| 20260503190731 | 16 | 297 | 20.9 | 38.6 | 0.00 | 0.00 | 0.00 | 36 | 1012.1 |
| 20260503190228 | 16 | 256 | 20.9 | 30.6 | 0.00 | 0.00 | 0.00 | 36 | 1012.3 |
| 20260503185725 | 16 | 293 | 20.9 | 35.4 | 0.00 | 0.00 | 0.00 | 37 | 1012.1 |
| 20260503185221 | 17 | 268 | 4.8 | 16.1 | 0.00 | 0.00 | 0.00 | 37 | 1012.2 |
| 20260503184716 | 16 | 303 | 4.8 | 19.3 | 0.00 | 0.00 | 0.00 | 36 | 1012.3 |
| 20260503184212 | 16 | 299 | 12.9 | 19.3 | 0.00 | 0.00 | 0.00 | 35 | 1012.3 |
| 20260503183709 | 16 | 264 | 9.7 | 19.3 | 0.00 | 0.00 | 0.00 | 36 | 1012.2 |
| 20260503183206 | 16 | 236 | 12.9 | 19.3 | 0.00 | 0.00 | 0.00 | 37 | 1012.4 |
| 20260503182704 | 15 | 224 | 17.7 | 27.4 | 0.00 | 0.00 | 0.00 | 37 | 1012.4 |
| 20260503182203 | 15 | 292 | 22.5 | 27.4 | 0.00 | 0.00 | 0.00 | 36 | 1012.5 |
| 20260503181658 | 15 | 299 | 19.3 | 30.6 | 0.00 | 0.00 | 0.00 | 37 | 1012.5 |
| 20260503181155 | 15 | 281 | 8.0 | 27.4 | 0.00 | 0.00 | 0.00 | 37 | 1012.6 |
| 20260503180652 | 15 | 335 | 12.9 | 16.1 | 0.00 | 0.00 | 0.00 | 37 | 1012.5 |
| 20260503180151 | 15 | 329 | 17.7 | 24.1 | 0.00 | 0.00 | 0.00 | 37 | 1012.7 |
| 20260503175647 | 15 | 249 | 11.3 | 11.3 | 0.00 | 0.00 | 0.00 | 37 | 1012.7 |
| 20260503175144 | 15 | 274 | 25.7 | 35.4 | 0.00 | 0.00 | 0.00 | 35 | 1012.8 |
| 20260503174640 | 15 | 318 | 6.4 | 11.3 | 0.00 | 0.00 | 0.00 | 38 | 1012.9 |
| 20260503174138 | 14 | 338 | 12.9 | 24.1 | 0.00 | 0.00 | 0.00 | 38 | 1012.9 |
| 20260503173633 | 14 | 263 | 9.7 | 24.1 | 0.00 | 0.00 | 0.00 | 36 | 1013.1 |
| 20260503173129 | 14 | 302 | 16.1 | 30.6 | 0.00 | 0.00 | 0.00 | 38 | 1013.1 |
| 20260503172620 | 14 | 340 | 4.8 | 19.3 | 0.00 | 0.00 | 0.00 | 38 | 1013.2 |
| 20260503172118 | 14 | 324 | 3.2 | 11.3 | 0.00 | 0.00 | 0.00 | 40 | 1013.4 |
| 20260503171614 | 15 | 296 | 6.4 | 11.3 | 0.00 | 0.00 | 0.00 | 39 | 1013.3 |
| 20260503171112 | 15 | 356 | 6.4 | 8.0 | 0.00 | 0.00 | 0.00 | 38 | 1013.3 |
| 20260503170609 | 15 | 0 | 9.7 | 11.3 | 0.00 | 0.00 | 0.00 | 38 | 1013.5 |
| 20260503170105 | 13 | 334 | 14.5 | 30.6 | 0.00 | 0.00 | 0.00 | 40 | 1013.5 |
| 20260503151000 | 11 | 323 | 8.0 | 19.3 | 0.00 | 0.00 | 0.00 | 45 | 1014.7 |
| 20260503150457 | 11 | 307 | 6.4 | 24.1 | 0.00 | 0.00 | 0.00 | 45 | 1014.8 |
| 20260503131344 | 8 | 343 | 6.4 | 16.1 | 0.00 | 0.00 | 0.00 | 47 | 1015.1 |
| 20260503130841 | 8 | 302 | 3.2 | 3.2 | 0.00 | 0.00 | 0.00 | 51 | 1015.2 |
| 20260503130339 | 8 | 6 | 1.6 | 8.0 | 0.00 | 0.00 | 0.00 | 52 | 1015.1 |
| 20260503110738 | 4 | 303 | 3.2 | 8.0 | 0.00 | 0.00 | 0.00 | 71 | 1014.9 |
| 20260503110235 | 4 | 297 | 3.2 | 3.2 | 0.00 | 0.00 | 0.00 | 71 | 1014.7 |
| 20260503100201 | 3 | 334 | 0.0 | 3.2 | 0.00 | 0.00 | 0.00 | 72 | 1013.9 |
| 20260503090120 | 3 | 326 | 0.0 | 0.0 | 0.00 | 0.00 | 0.00 | 71 | 1013.8 |
| 20260503081551 | 5 | 331 | 0.0 | 3.2 | 0.00 | 0.00 | 0.00 | 72 | 1013.7 |
| 20260503081048 | 5 | 328 | 0.0 | 3.2 | 0.00 | 0.00 | 0.00 | 72 | 1013.6 |
| 20260503080544 | 5 | 331 | 0.0 | 3.2 | 0.00 | 0.00 | 0.00 | 72 | 1013.5 |
| 20260503072517 | 5 | 341 | 0.0 | 0.0 | 0.00 | 0.00 | 0.00 | 69 | 1013.2 |
| 20260503072014 | 5 | 336 | 0.0 | 3.2 | 0.00 | 0.00 | 0.00 | 68 | 1013.1 |
| 20260503071511 | 5 | 330 | 0.0 | 3.2 | 0.00 | 0.00 | 0.00 | 69 | 1013.1 |
| 20260503071008 | 5 | 333 | 0.0 | 0.0 | 0.00 | 0.00 | 0.00 | 69 | 1013.1 |
| 20260503070504 | 6 | 333 | 0.0 | 0.0 | 0.00 | 0.00 | 0.00 | 69 | 1013.0 |
| 20260503054922 | 7 | 351 | 6.4 | 11.3 | 0.00 | 0.00 | 0.00 | 64 | 1013.1 |
| 20260503054419 | 7 | 0 | 0.0 | 11.3 | 0.00 | 0.00 | 0.00 | 63 | 1013.2 |
| 20260503053917 | 7 | 3 | 4.8 | 8.0 | 0.00 | 0.00 | 0.00 | 62 | 1013.2 |